[[{"header":{"parameterUnit":"m.s-1","parameterCategory":1,"la1":30.2991,"la2":30.254,"lo1":-89.0895,"lo2":-89.0444,"dy":0.0017,"dx":0.0017,"nx":28,"ny":28,"refTime":"2025-04-21T21:00:00:Z","depth":0,"parameterNumber":2,"parameterNumberName":"U-component_of_WINDS"},"data":[0,0,0,0,0,0,0,0,0,0,0,0,0,0,0,0,0,0,0,0,0,0,0,0,0,0,0,0,0,0,0,0,0,0,0,0,0,0,0,0,0,0,0,0,0,0,0,0,0,0,0,0,0,0,0,0,0,0,-2.1511,-2.1512,0,-2.1571,-2.1572,-2.1573,-2.1586,-2.1585,-2.1585,-2.1584,-2.1647,-2.1649,-2.1651,0,0,0,0,0,0,0,0,0,0,0,0,0,-2.1409,-2.141,-2.1511,-2.1512,-2.1513,-2.1571,-2.1572,-2.1573,-2.1586,-2.1585,-2.1585,-2.1584,-2.1646,-2.1648,-2.1651,0,0,0,0,0,0,0,0,0,0,0,0,0,-2.1459,-2.1411,-2.1511,-2.1526,-2.1528,-2.1571,-2.1572,-2.1573,-2.1586,-2.1585,-2.1584,-2.1584,-2.1645,-2.1648,-2.1651,-2.1683,0,0,-2.1661,-2.1662,0,0,0,0,0,0,0,0,-2.1456,-2.1463,-2.1523,-2.1525,-2.1527,-2.157,-2.1559,-2.161,-2.1586,-2.1564,-2.1584,-2.1584,-2.1622,-2.1627,-2.1639,-2.1686,-2.1689,-2.1661,-2.1663,-2.1664,-2.1665,0,0,0,0,0,0,0,-2.1453,-2.1461,-2.1535,-2.1524,-2.1527,-2.153,-2.1537,-2.1568,-2.1596,-2.1566,-2.1567,-2.1574,-2.1623,-2.1636,-2.1641,-2.169,-2.1661,-2.1664,-2.1665,-2.1667,-2.1767,-2.1768,0,0,0,0,0,0,-2.1447,-2.1458,-2.1533,-2.1537,-2.149,-2.1533,-2.154,-2.1557,-2.1595,-2.1601,-2.1574,-2.1574,-2.1631,-2.1637,-2.1643,-2.1684,-2.1664,-2.1667,-2.1669,-2.1766,-2.1767,-2.1768,0,0,0,0,0,0,-2.1444,-2.1453,-2.1531,-2.1497,-2.1508,-2.1535,-2.1554,-2.1559,-2.1572,-2.1602,-2.1607,-2.1583,-2.1631,-2.1639,-2.1673,-2.1686,-2.1668,-2.1671,-2.1765,-2.1767,-2.1768,-2.1764,0,0,0,0,0,0,-2.1441,-2.1452,-2.1464,-2.1498,-2.1509,-2.1559,-2.1555,-2.156,-2.1578,-2.1578,-2.1612,-2.1616,-2.1631,-2.1669,-2.1677,-2.169,-2.1674,-2.1764,-2.1766,-2.1767,-2.1763,-2.1765,-2.1767,0,0,0,0,0,-2.1438,-2.1461,-2.1465,-2.1474,-2.1525,-2.156,-2.1567,-2.1583,-2.1579,-2.1591,-2.161,-2.1615,-2.1684,-2.1672,-2.1681,-2.1695,-2.1764,-2.1765,-2.1767,-2.1763,-2.1765,-2.1767,0,0,0,0,0,0,-2.1429,-2.1466,-2.147,-2.1505,-2.1529,-2.1562,-2.1578,-2.1585,-2.1611,-2.161,-2.163,-2.1637,-2.167,-2.1687,-2.1673,-2.1729,-2.1723,-2.1727,-2.1717,-2.1719,-2.1721,-2.1716,-2.1676,0,0,0,0,0,-2.1431,-2.1456,-2.1487,-2.1515,-2.1527,-2.1551,-2.1566,-2.1577,-2.1603,-2.1613,-2.1635,-2.166,-2.1687,-2.1704,-2.1731,-2.1766,-2.1774,-2.1781,-2.1783,-2.1784,-2.1786,-2.1807,-2.181,-2.1774,-2.1774,-2.1774,0,0,-2.1436,-2.1459,-2.1473,-2.1514,-2.1534,-2.1559,-2.1559,-2.1586,-2.1605,-2.1617,-2.1651,-2.1668,-2.1697,-2.1732,-2.1749,-2.1747,-2.1798,-2.1786,-2.1787,-2.1789,-2.1809,-2.1812,-2.1815,-2.1775,-2.1775,-2.1775,0,0,-2.1457,-2.1477,-2.1502,-2.1522,-2.1553,-2.1568,-2.1575,-2.1607,-2.1618,-2.1652,-2.1662,-2.1686,-2.1732,-2.1752,-2.1769,-2.1799,-2.1805,-2.1808,-2.1816,-2.1835,-2.1838,-2.1841,-2.1851,-2.1855,-2.181,-2.181,-2.181,0,-2.1459,-2.1497,-2.1515,-2.1541,-2.1559,-2.1571,-2.1597,-2.1616,-2.1653,-2.1665,-2.1663,-2.1721,-2.1742,-2.1782,-2.179,-2.1803,-2.1811,-2.1803,-2.1836,-2.1839,-2.1842,-2.1852,-2.1856,-2.181,-2.181,-2.181,-2.181,0,-2.1498,-2.1525,-2.1542,-2.1577,-2.1597,-2.1623,-2.1645,-2.1663,-2.1672,-2.1689,-2.1724,-2.1749,-2.1781,-2.1792,-2.1801,-2.1834,-2.1831,-2.1832,-2.1827,-2.1845,-2.1855,-2.1859,-2.181,-2.181,-2.181,-2.181,0,0,-2.1514,-2.1559,-2.1565,-2.1581,-2.1616,-2.1637,-2.1665,-2.1696,-2.1711,-2.1737,-2.176,-2.1799,-2.1801,-2.1819,-2.1832,-2.1849,-2.1871,-2.1848,-2.1849,-2.1851,-2.1908,-2.1906,-2.191,-2.1875,-2.1876,-2.1877,-2.1905,0,-2.1539,-2.1587,-2.1604,-2.1644,-2.1669,-2.1681,-2.1705,-2.1729,-2.1746,-2.177,-2.1788,-2.1815,-2.1815,-2.1827,-2.1844,-2.1864,-2.1882,-2.1863,-2.1897,-2.1898,-2.1888,-2.1915,-2.1914,-2.1939,-2.1909,-2.191,-2.191,0,-2.1574,-2.16,-2.1642,-2.1674,-2.1685,-2.1706,-2.1736,-2.1759,-2.1787,-2.1797,-2.1819,-2.183,-2.1859,-2.1853,-2.1894,-2.188,-2.1896,-2.1908,-2.1909,-2.1912,-2.1904,-2.1918,-2.1947,-2.1951,-2.1917,-2.1916,-2.1916,0,-2.158,-2.1626,-2.1657,-2.1671,-2.1709,-2.1723,-2.174,-2.1767,-2.1785,-2.1812,-2.1824,-2.1854,-2.187,-2.1893,-2.1913,-2.1906,-2.1952,-2.1947,-2.1962,-2.1961,-2.1969,-2.1968,-2.2001,-2.1981,-2.1981,-2.1981,-2.1981,0,-2.1606,-2.1631,-2.1661,-2.168,-2.1709,-2.1728,-2.1757,-2.1774,-2.1799,-2.1822,-2.1835,-2.1857,-2.1881,-2.1906,-2.1921,-2.1953,-2.196,-2.197,-2.1974,-2.1968,-2.1967,-2.1978,-2.1976,-2.1982,-2.1982,-2.1982,-2.1981,0,-2.1618,-2.1639,-2.1673,-2.1707,-2.1716,-2.1735,-2.1764,-2.1783,-2.1801,-2.183,-2.1838,-2.1865,-2.1895,-2.1917,-2.1956,-2.1966,-2.2,-2.2004,-2.199,-2.1992,-2.2005,-2.2003,-2.2044,-2.205,-2.2027,-2.2027,-2.2028,0,-2.1632,-2.1651,-2.1687,-2.1703,-2.1719,-2.1746,-2.1764,-2.1785,-2.1803,-2.1837,-2.1852,-2.1883,-2.1909,-2.1956,-2.198,-2.201,-2.2014,-2.2027,-2.2019,-2.2013,-2.2014,-2.2012,-2.2014,-2.2028,-2.2028,-2.2028,-2.2028,0,-2.1655,-2.1664,-2.169,-2.1719,-2.174,-2.1765,-2.1789,-2.1802,-2.1827,-2.1848,-2.1878,-2.1898,-2.1938,-2.1969,-2.2001,-2.2019,-2.2028,-2.2031,-2.2035,-2.2029,-2.202,-2.2025,-2.1992,-2.2029,-2.2029,-2.2029,-2.2029,-2.2029,-2.1668,-2.1686,-2.1714,-2.1742,-2.1762,-2.1785,-2.1805,-2.1825,-2.185,-2.1884,-2.1895,-2.1927,-2.1955,-2.2,-2.2018,-2.2044,-2.2043,-2.205,-2.2052,-2.2053,-2.2052,-2.2017,-2.205,-2.205,-2.205,-2.205,-2.205,0,-2.1691,-2.171,-2.1735,-2.1769,-2.1791,-2.1798,-2.1825,-2.1844,-2.1871,-2.1897,-2.1922,-2.1957,-2.1987,-2.2014,-2.2045,-2.206,-2.2065,-2.2068,-2.2066,-2.207,-2.2051,-2.2044,-2.2063,-2.2063,-2.2063,-2.2063,-2.2063,-2.2063,-2.1706,-2.1736,-2.1749,-2.1791,-2.1809,-2.184,-2.1855,-2.1877,-2.1897,-2.1936,-2.196,-2.1977,-2.2003,-2.2037,-2.2065,-2.2072,-2.2083,-2.2084,-2.2092,-2.2073,-2.2072,-2.207,-2.2063,-2.2086,-2.2086,-2.2109,-2.2109,-2.2109]},{"header":{"parameterUnit":"m.s-1","parameterCategory":1,"la1":30.2991,"la2":30.254,"lo1":-89.0895,"lo2":-89.0444,"dy":0.0017,"dx":0.0017,"nx":28,"ny":28,"refTime":"2025-04-21T21:00:00:Z","depth":0,"parameterNumber":3,"parameterNumberName":"V-component_of_WINDS"},"data":[0,0,0,0,0,0,0,0,0,0,0,0,0,0,0,0,0,0,0,0,0,0,0,0,0,0,0,0,0,0,0,0,0,0,0,0,0,0,0,0,0,0,0,0,0,0,0,0,0,0,0,0,0,0,0,0,0,0,4.5119,4.512,0,4.5201,4.5202,4.5203,4.5214,4.5213,4.5213,4.5212,4.5291,4.5294,4.5297,0,0,0,0,0,0,0,0,0,0,0,0,0,4.4972,4.4975,4.5119,4.512,4.5121,4.5201,4.5202,4.5203,4.5214,4.5213,4.5212,4.5212,4.529,4.5294,4.5297,0,0,0,0,0,0,0,0,0,0,0,0,0,4.5043,4.4976,4.5119,4.5137,4.5139,4.52,4.5202,4.5203,4.5214,4.5213,4.5212,4.5211,4.5289,4.5293,4.5297,4.5346,0,0,4.531,4.5312,0,0,0,0,0,0,0,0,4.5039,4.5048,4.5133,4.5136,4.5138,4.5196,4.5179,4.5251,4.5215,4.5186,4.5212,4.5211,4.526,4.5267,4.5284,4.5349,4.5353,4.5311,4.5313,4.5315,4.5316,0,0,0,0,0,0,0,4.5034,4.5045,4.5151,4.5134,4.5138,4.514,4.5149,4.5193,4.5228,4.5188,4.5189,4.5199,4.5261,4.528,4.5286,4.5354,4.5311,4.5314,4.5317,4.5318,4.5465,4.5466,0,0,0,0,0,0,4.5026,4.5041,4.5149,4.5154,4.5085,4.5144,4.5153,4.5179,4.5228,4.5234,4.52,4.5199,4.5274,4.5281,4.5289,4.535,4.5315,4.5319,4.5321,4.5464,4.5465,4.5467,0,0,0,0,0,0,4.5023,4.5036,4.5146,4.5098,4.5112,4.5147,4.5176,4.5181,4.52,4.5236,4.5243,4.5213,4.5273,4.5283,4.5332,4.5353,4.5321,4.5325,4.5462,4.5464,4.5466,4.5472,0,0,0,0,0,0,4.5019,4.5035,4.5053,4.5098,4.5114,4.5188,4.5177,4.5183,4.5207,4.5207,4.525,4.5256,4.5273,4.5326,4.5337,4.5358,4.5328,4.546,4.5463,4.5466,4.547,4.5474,4.5478,0,0,0,0,0,4.5014,4.505,4.5054,4.5067,4.5139,4.5189,4.5198,4.5218,4.5209,4.5228,4.5252,4.5255,4.5349,4.5331,4.5343,4.5366,4.5459,4.5462,4.5465,4.5469,4.5473,4.5478,0,0,0,0,0,0,4.5005,4.5056,4.5061,4.5114,4.5147,4.5191,4.5215,4.5222,4.5257,4.5256,4.5278,4.5287,4.5336,4.5356,4.5334,4.5417,4.5403,4.5409,4.5402,4.5407,4.541,4.5404,4.5331,0,0,0,0,0,4.501,4.5047,4.509,4.5132,4.5149,4.5179,4.5202,4.5215,4.5249,4.5263,4.5291,4.5324,4.5361,4.5385,4.5421,4.5474,4.5484,4.5496,4.5499,4.5502,4.5507,4.5538,4.5544,4.5477,4.5477,4.5477,0,0,4.5019,4.5052,4.5073,4.5131,4.5158,4.5197,4.5191,4.5231,4.5259,4.5269,4.5318,4.5339,4.5377,4.5429,4.5453,4.5447,4.5528,4.5506,4.5508,4.5511,4.5542,4.5548,4.5554,4.5479,4.5479,4.5478,0,0,4.5055,4.5084,4.5123,4.5151,4.5194,4.5215,4.5224,4.5268,4.5283,4.5333,4.5342,4.5376,4.5439,4.5467,4.5489,4.554,4.5544,4.5551,4.5569,4.56,4.5605,4.561,4.5629,4.5636,4.5555,4.5555,4.5555,0,4.5061,4.5119,4.5142,4.5183,4.5208,4.5221,4.5262,4.5288,4.5339,4.5356,4.535,4.5432,4.5458,4.5517,4.553,4.5547,4.5559,4.5545,4.5603,4.5608,4.5612,4.5631,4.5638,4.5556,4.5556,4.5556,4.5556,0,4.5125,4.5166,4.5192,4.5244,4.5273,4.5313,4.5342,4.5368,4.5379,4.5401,4.5452,4.5485,4.5529,4.5544,4.5554,4.5606,4.5601,4.5598,4.5585,4.5619,4.5637,4.5644,4.5557,4.5556,4.5556,4.5556,0,0,4.5156,4.5223,4.5232,4.5257,4.5306,4.5338,4.5379,4.5425,4.5447,4.5483,4.5518,4.5573,4.5572,4.5598,4.5611,4.5638,4.5678,4.5632,4.5633,4.564,4.5738,4.574,4.5748,4.5681,4.5682,4.5684,4.5735,0,4.5199,4.5275,4.5298,4.5361,4.5399,4.5414,4.545,4.5484,4.5506,4.5541,4.5565,4.5604,4.5599,4.5615,4.5642,4.5667,4.5698,4.5664,4.5714,4.5716,4.5705,4.5757,4.5759,4.5806,4.5742,4.5744,4.5744,0,4.5259,4.5298,4.5366,4.5413,4.543,4.5462,4.5507,4.554,4.558,4.5594,4.5624,4.5636,4.568,4.5666,4.5727,4.5703,4.5726,4.5742,4.5744,4.5749,4.5732,4.5765,4.5822,4.5829,4.5755,4.5755,4.5754,0,4.5276,4.5346,4.5396,4.5417,4.5472,4.5495,4.5519,4.5558,4.5584,4.5623,4.5641,4.5683,4.5707,4.574,4.5763,4.575,4.5823,4.581,4.5837,4.5836,4.5851,4.585,4.5913,4.5865,4.5864,4.5864,4.5864,0,4.5322,4.5363,4.5406,4.5436,4.5483,4.5509,4.5555,4.5579,4.5614,4.565,4.5664,4.5697,4.5727,4.5764,4.5782,4.5831,4.5841,4.5854,4.5859,4.5853,4.5852,4.5868,4.5866,4.5866,4.5866,4.5865,4.5865,0,4.5349,4.5379,4.5435,4.5484,4.5498,4.553,4.5572,4.5603,4.5626,4.5672,4.5684,4.572,4.5765,4.5792,4.5848,4.5861,4.5915,4.5918,4.5902,4.5905,4.593,4.5928,4.6006,4.6018,4.5961,4.5962,4.5962,0,4.5376,4.5409,4.5462,4.5489,4.5513,4.5555,4.5583,4.561,4.5639,4.5688,4.5713,4.5759,4.5798,4.5869,4.59,4.5943,4.5948,4.5973,4.5954,4.5949,4.5949,4.5947,4.5951,4.5975,4.5976,4.5976,4.5976,0,4.5422,4.5436,4.5477,4.5524,4.5557,4.5595,4.5632,4.5652,4.5686,4.5718,4.5765,4.5795,4.5854,4.59,4.5947,4.5971,4.598,4.5982,4.5991,4.5986,4.5976,4.5983,4.5911,4.598,4.598,4.5979,4.5979,4.5979,4.5451,4.5481,4.5525,4.557,4.5602,4.5637,4.5669,4.5698,4.5738,4.5789,4.5803,4.5853,4.5894,4.5958,4.5984,4.6023,4.6019,4.6031,4.6034,4.6037,4.6038,4.597,4.6031,4.6031,4.6031,4.6031,4.6031,0,4.5498,4.5527,4.5569,4.5622,4.5659,4.5665,4.5708,4.5737,4.5782,4.582,4.5858,4.5913,4.5959,4.5995,4.6042,4.6066,4.6072,4.6078,4.6076,4.6082,4.6038,4.6027,4.6073,4.6073,4.6073,4.6073,4.6073,4.6073,4.5527,4.5579,4.5599,4.5668,4.5697,4.5747,4.5771,4.5804,4.5835,4.5896,4.5935,4.5959,4.5996,4.6047,4.6089,4.6098,4.6115,4.6121,4.6131,4.6089,4.6085,4.608,4.607,4.6124,4.6124,4.6172,4.6172,4.6172]}]]